Simultaneous Nadir Overpasses (SNOs) Predictions

Prediction of SNOs between GOES-15 and METOP-B Satellite Orbit:

Table of predicted SNOs for the next 14.0 days since TLE Epoch: 8/8/2025
Index Date Time (GOES-15) GOES-15 Lat,Lon METOP-B Lat,Lon Distance(km) Time Diff (sec)
1 08/09/2025 16:58:49 -0.08, 61.57 -0.13, 61.40 20.53 80
2 08/12/2025 04:54:25 0.09, 61.52 0.03, 61.78 29.91 80
3 08/14/2025 16:52:48 -0.11, 61.66 0.02, 62.14 55.00 80
4 08/16/2025 05:14:21 0.17, 61.60 1.07, 57.56 459.71 80
5 08/17/2025 04:51:03 0.13, 61.62 -0.08, 62.53 103.95 80
6 08/18/2025 17:12:45 -0.19, 61.76 -1.01, 57.92 436.72 80
7 08/19/2025 16:49:26 -0.15, 61.78 0.08, 62.90 126.80 80
8 08/21/2025 05:10:59 0.21, 61.72 0.94, 58.31 388.55 80
9 08/22/2025 04:47:41 0.16, 61.75 -0.16, 63.29 174.94 80
